Location: Perryvale
(54.4667°N, 113.3833°W)
Time: 23:28:09
(UTC+00:00)

SR - Pass Details

Date: 28 May 2024
Orbit: 580 x 858 km, 66.7° (Epoch: 13 June)

Event Time Altitude Azimuth Distance (km) Brightness Sun altitude
Rises 07:19:31 0° 318° (NW) 2,918 ? -13.9°
Reaches altitude 10° 07:21:53 10° 322° (NW) 1,976 ? -14.0°
Maximum altitude 07:26:14 58° 42° (NE) 695 ? -14.0°
Drops below altitude 10° 07:30:25 10° 123° (ESE) 1,899 ? -14.0°
Enters shadow 07:31:01 - 124° (SE) 2,138 ? -14.0°
